Miscellaneous Local Product
Issued by NWS North Platte, NE

Home | Current Version | Previous Version | Text Only | Print | Product List | Glossary On
Versions: 1 2 3 4 5 6 7 8 9 10 11 12 13 14 15 16 17 18 19 20 21 22 23 24 25 26 27 28 29 30 31 32 33 34 35 36 37 38 39 40 41 42 43 44 45 46 47 48 49 50
768
AXUS43 KLBF 211310
MISLBF


WESTERN AND NORTH CENTRAL NEBRASKA HOURLY WEATHER ROUNDUP
NATIONAL WEATHER SERVICE NORTH PLATTE NE
700 AM CST SUN JAN 21 2018

NOTE: "FAIR" INDICATES FEW OR NO CLOUDS BELOW 12,000 FEET WITH NO
SIGNIFICANT WEATHER AND/OR OBSTRUCTIONS TO VISIBILITY.

NOTE: STATIONS NOT REPORTING VARIABLES SUCH AS SKY/WEATHER OR
PRESSURE ARE PROVIDED BY RAWS AND APRS NETWORKS AND ARE NOT UNDER
NATIONAL WEATHER SERVICE QUALITY CONTROL.

...OBSERVATIONS IN AND NEAR THE EASTERN PANHANDLE OF NEBRASKA...

CITY           SKY/WX    TMP DP  RH WIND       PRES   REMARKS
PINE RIDGE     LGT SNOW  30  29  96 N6        29.95S FOG     WCI  24
GORDON         LGT SNOW  30  28  93 N12       29.92S WCI  21
CHADRON        FOG       29  28  96 N12       29.96S VSB 3/4 WCI  19
ALLIANCE       LGT SNOW  28  27  96 N15       29.88S FOG     WCI  16
SIDNEY         CLOUDY    28  27  96 NE13      29.84S WCI  17
CRESCENT LAKE    N/A     28  28 100 NE12        N/A  WCI  18
$$

...OBSERVATIONS IN NORTHERN NEBRASKA AND FAR SOUTHERN SOUTH DAKOTA...

CITY           SKY/WX    TMP DP  RH WIND       PRES   REMARKS
WINNER         LGT SNOW  34  32  92 N10       29.95S VSB 3/4 WCI  26
VALENTINE      LGT SNOW  34  32  92 N14       29.92S FOG     WCI  25
AINSWORTH      CLOUDY    32  32  99 N15       29.90S WCI  22
O`NEILL        CLOUDY    32  32 100 N10       29.89R WCI  23
THEDFORD       CLOUDY    32  31  94 N15G21    29.88R WCI  22
BROKEN BOW     CLOUDY    34  29  82 N14       29.83R WCI  25
ORD            CLOUDY    33  28  81 N18       29.82F WCI  22
ALBION         CLOUDY    34  32  91 NE10      29.84R WCI  26
VALENTINE NWR    N/A     31  29  93 N9G16       N/A  WCI  23
HALSEY           N/A     31  29  91 N8G16       N/A  WCI  24
BUTTE            N/A     32  29  88 N9          N/A  WCI  24
CHAMBERS         N/A     30  29  95 CALM        N/A
EWING            N/A     29  27  90 NE3         N/A
$$

...OBSERVATIONS IN SOUTHWEST NEBRASKA AND FAR NORTHEAST COLORADO...

CITY           SKY/WX    TMP DP  RH WIND       PRES   REMARKS
WRAY           CLOUDY    32  28  86 N16       29.80S WCI  21
HOLYOKE        CLOUDY    34  30  86 N16G22    29.82R WCI  23
IMPERIAL       CLOUDY    33  29  85 N17       29.80S WCI  22
OGALLALA       CLOUDY    34  30  86 NE17      29.84S WCI  23
NORTH PLATTE   CLOUDY    33  29  85 NE17      29.82S WCI  22
MCCOOK         CLOUDY    32  30  92 N16       29.76S WCI  21
LEXINGTON      CLOUDY    34  30  86 NE9       29.80R WCI  26
STAPLETON        N/A     32  29  90 NE5G15      N/A  WCI  27
GOTHENBURG       N/A     33  29  84 N7          N/A  WCI  27
CALLAWAY         N/A     32  30  92 NE13        N/A  WCI  22
$$

...OBSERVATIONS IN CENTRAL LINCOLN COUNTY AREA...

CITY           SKY/WX    TMP DP  RH WIND       PRES   REMARKS
N.P. AIRPORT   CLOUDY    33  29  85 NE17      29.82S WCI  22
N.P. DOWNTOWN    N/A     32  29  90 NE7G15      N/A  WCI  26
N.P. SOUTHEAST   N/A     32  29  87 N6G14       N/A  WCI  26
N.P. HILLCREST   N/A     33  30  90 NE20G28     N/A  WCI  21
$$

...SOME OBSERVATIONS FROM AROUND THE REGION...

CITY           SKY/WX    TMP DP  RH WIND       PRES   REMARKS
DENVER         LGT SNOW  25  23  92 N9        29.80R VSB 3/4 WCI  15
BERTHOUD PASS  LGT SNOW   5  -6  61 MISG      29.62S
GRAND JUNCTION LGT SNOW  28  28 100 NW13      29.80R VSB 1   WCI  17
LARAMIE        LGT SNOW  19  15  84 NE3       29.77R FOG
CHEYENNE       LGT SNOW  22  21  96 NE10      29.80S FOG     WCI  11
CASPER         LGT SNOW  21  20  96 N12       29.94R FOG     WCI   9
BISMARCK       PTCLDY    13  11  92 CALM      30.02R
RAPID CITY     CLOUDY    28  24  85 NW3       29.98R
PIERRE         CLOUDY    32  31  96 N5        29.96S WCI  27
SIOUX FALLS    CLOUDY    34  30  85 NE8       29.93R WCI  27
OMAHA          CLOUDY    40  37  89 N8        29.81F WCI  34
GRAND ISLAND   CLOUDY    32  32 100 N15       29.79F FOG     WCI  22
SCOTTSBLUFF    LGT SNOW  29  27  92 NE15      29.89S FOG     WCI  18
KANSAS CITY    CLOUDY    49  47  93 SE10      29.79R
HILL CITY      CLOUDY    35  35 100 N10       29.74R FOG     WCI  27
WICHITA        CLOUDY    49  48  97 S14       29.70R
DODGE CITY     FOG       34  32  92 N12       29.69R VSB 1/2 WCI  25
OKLAHOMA CITY  MOCLDY    54  51  90 S25G35    29.79S
DALLAS         MOCLDY    65  60  84 S15       29.87S
AMARILLO       CLEAR     43  19  38 W12       29.74R
$$




USA.gov is the U.S. government's official web portal to all federal, state and local government web resources and services.